Time,TemperatureF,DewpointF,PressureIn,WindDirection,WindDirectionDegrees,WindSpeedMPH,WindSpeedGustMPH,Humidity,HourlyPrecipIn,Conditions,Clouds,dailyrainin,SoftwareType,DateUTC
2013-05-01 00:00:00,27.3,10.2,30.42,ESE,108,0.0,0.0,48,0.00,,,0.00,Weather View 32 v70,2013-05-01 07:00:00,
2013-05-01 00:05:00,27.3,10.2,30.42,ESE,107,0.0,0.0,48,0.00,,,0.00,Weather View 32 v70,2013-05-01 07:05:00,
2013-05-01 00:10:00,27.0,10.3,30.42,ESE,107,0.0,0.0,49,0.00,,,0.00,Weather View 32 v70,2013-05-01 07:10:00,
2013-05-01 00:15:00,26.8,10.2,30.42,ESE,107,0.0,0.0,49,0.00,,,0.00,Weather View 32 v70,2013-05-01 07:15:00,
2013-05-01 00:20:00,26.4,9.8,30.42,ESE,107,0.0,0.0,49,0.00,,,0.00,Weather View 32 v70,2013-05-01 07:20:00,
2013-05-01 00:25:00,26.2,9.7,30.42,ESE,108,0.0,0.0,49,0.00,,,0.00,Weather View 32 v70,2013-05-01 07:25:00,
2013-05-01 00:30:00,26.1,9.0,30.42,ESE,108,0.0,0.0,48,0.00,,,0.00,Weather View 32 v70,2013-05-01 07:30:00,
2013-05-01 00:35:00,25.9,9.3,30.42,ESE,108,0.0,0.0,49,0.00,,,0.00,Weather View 32 v70,2013-05-01 07:35:00,
2013-05-01 00:40:00,25.7,9.2,30.42,ESE,107,0.0,0.0,49,0.00,,,0.00,Weather View 32 v70,2013-05-01 07:40:00,
2013-05-01 00:45:00,25.7,9.2,30.42,ESE,108,0.0,0.0,49,0.00,,,0.00,Weather View 32 v70,2013-05-01 07:45:00,
2013-05-01 00:50:00,25.3,8.8,30.42,ESE,107,0.0,0.0,49,0.00,,,0.00,Weather View 32 v70,2013-05-01 07:50:00,
2013-05-01 00:55:00,25.3,8.8,30.42,ESE,107,0.0,0.0,49,0.00,,,0.00,Weather View 32 v70,2013-05-01 07:55:00,
2013-05-01 01:00:00,25.2,8.7,30.42,ESE,107,0.0,0.0,49,0.00,,,0.00,Weather View 32 v70,2013-05-01 08:00:00,
2013-05-01 01:05:00,25.0,8.5,30.44,ESE,108,0.0,0.0,49,0.00,,,0.00,Weather View 32 v70,2013-05-01 08:05:00,
2013-05-01 01:10:00,24.8,8.3,30.44,ESE,107,0.0,0.0,49,0.00,,,0.00,Weather View 32 v70,2013-05-01 08:10:00,
2013-05-01 01:15:00,24.6,8.2,30.44,ESE,107,0.0,0.0,49,0.00,,,0.00,Weather View 32 v70,2013-05-01 08:15:00,
2013-05-01 01:20:00,24.4,8.0,30.44,ESE,108,0.0,0.0,49,0.00,,,0.00,Weather View 32 v70,2013-05-01 08:20:00,
2013-05-01 01:25:00,24.3,8.3,30.44,ESE,108,0.0,0.0,50,0.00,,,0.00,Weather View 32 v70,2013-05-01 08:25:00,
2013-05-01 01:30:00,24.1,7.7,30.44,ESE,108,0.0,0.0,49,0.00,,,0.00,Weather View 32 v70,2013-05-01 08:30:00,
2013-05-01 01:35:00,23.9,7.5,30.44,ESE,108,0.0,0.0,49,0.00,,,0.00,Weather View 32 v70,2013-05-01 08:35:00,
2013-05-01 01:40:00,23.5,7.6,30.44,ESE,107,0.0,0.0,50,0.00,,,0.00,Weather View 32 v70,2013-05-01 08:40:00,
2013-05-01 01:45:00,23.5,7.6,30.44,ESE,107,0.0,0.0,50,0.00,,,0.00,Weather View 32 v70,2013-05-01 08:45:00,
2013-05-01 01:50:00,23.4,7.5,30.44,ESE,107,0.0,0.0,50,0.00,,,0.00,Weather View 32 v70,2013-05-01 08:50:00,
2013-05-01 01:55:00,23.4,7.5,30.44,ESE,108,0.0,0.0,50,0.00,,,0.00,Weather View 32 v70,2013-05-01 08:55:00,
2013-05-01 02:00:00,23.0,7.1,30.44,ESE,107,0.0,0.0,50,0.00,,,0.00,Weather View 32 v70,2013-05-01 09:00:00,
2013-05-01 02:05:00,22.8,7.4,30.44,ESE,108,0.0,0.0,51,0.00,,,0.00,Weather View 32 v70,2013-05-01 09:05:00,
2013-05-01 02:11:00,22.6,7.2,30.44,ESE,107,0.0,0.0,51,0.00,,,0.00,Weather View 32 v70,2013-05-01 09:11:00,
2013-05-01 02:16:00,22.5,6.6,30.44,ESE,107,0.0,0.0,50,0.00,,,0.00,Weather View 32 v70,2013-05-01 09:16:00,
2013-05-01 02:21:00,22.3,6.5,30.44,ESE,108,0.0,0.0,50,0.00,,,0.00,Weather View 32 v70,2013-05-01 09:21:00,
2013-05-01 02:26:00,22.3,6.5,30.44,ESE,107,0.0,0.0,50,0.00,,,0.00,Weather View 32 v70,2013-05-01 09:26:00,
2013-05-01 02:31:00,22.1,6.7,30.44,ESE,107,0.0,0.0,51,0.00,,,0.00,Weather View 32 v70,2013-05-01 09:31:00,
2013-05-01 02:36:00,21.9,6.1,30.44,ESE,107,0.0,0.0,50,0.00,,,0.00,Weather View 32 v70,2013-05-01 09:36:00,
2013-05-01 02:41:00,21.7,6.4,30.44,ESE,107,0.0,0.0,51,0.00,,,0.00,Weather View 32 v70,2013-05-01 09:41:00,
2013-05-01 02:46:00,21.6,6.2,30.44,ESE,107,0.0,0.0,51,0.00,,,0.00,Weather View 32 v70,2013-05-01 09:46:00,
2013-05-01 02:51:00,21.4,6.1,30.44,ESE,108,0.0,0.0,51,0.00,,,0.00,Weather View 32 v70,2013-05-01 09:51:00,
2013-05-01 02:56:00,21.2,6.3,30.44,ESE,107,0.0,0.0,52,0.00,,,0.00,Weather View 32 v70,2013-05-01 09:56:00,
2013-05-01 03:01:00,21.0,6.1,30.44,ESE,107,0.0,0.0,52,0.00,,,0.00,Weather View 32 v70,2013-05-01 10:01:00,
2013-05-01 03:06:00,20.8,6.0,30.44,ESE,107,0.0,0.0,52,0.00,,,0.00,Weather View 32 v70,2013-05-01 10:06:00,
2013-05-01 03:11:00,20.7,5.8,30.44,ESE,107,0.0,0.0,52,0.00,,,0.00,Weather View 32 v70,2013-05-01 10:11:00,
2013-05-01 03:16:00,20.5,6.1,30.44,ESE,107,0.0,0.0,53,0.00,,,0.00,Weather View 32 v70,2013-05-01 10:16:00,
2013-05-01 03:21:00,20.3,5.9,30.44,ESE,108,0.0,0.0,53,0.00,,,0.00,Weather View 32 v70,2013-05-01 10:21:00,
2013-05-01 03:26:00,20.3,5.9,30.44,ESE,107,0.0,0.0,53,0.00,,,0.00,Weather View 32 v70,2013-05-01 10:26:00,
2013-05-01 03:31:00,20.3,5.9,30.44,ESE,108,0.0,0.0,53,0.00,,,0.00,Weather View 32 v70,2013-05-01 10:31:00,
2013-05-01 03:36:00,20.1,5.7,30.44,ESE,107,0.0,0.0,53,0.00,,,0.00,Weather View 32 v70,2013-05-01 10:36:00,
2013-05-01 03:41:00,19.9,5.6,30.44,ESE,107,0.0,0.0,53,0.00,,,0.00,Weather View 32 v70,2013-05-01 10:41:00,
2013-05-01 03:46:00,19.6,5.2,30.44,ESE,108,0.0,0.0,53,0.00,,,0.00,Weather View 32 v70,2013-05-01 10:46:00,
2013-05-01 03:51:00,19.6,5.2,30.44,ESE,108,0.0,0.0,53,0.00,,,0.00,Weather View 32 v70,2013-05-01 10:51:00,
2013-05-01 03:56:00,19.4,5.5,30.44,ESE,108,0.0,0.0,54,0.00,,,0.00,Weather View 32 v70,2013-05-01 10:56:00,
2013-05-01 04:01:00,19.2,5.3,30.44,ESE,107,0.0,0.0,54,0.00,,,0.00,Weather View 32 v70,2013-05-01 11:01:00,
2013-05-01 04:06:00,19.2,5.3,30.44,ESE,107,0.0,0.0,54,0.00,,,0.00,Weather View 32 v70,2013-05-01 11:06:00,
2013-05-01 04:11:00,19.0,5.1,30.44,ESE,107,0.0,0.0,54,0.00,,,0.00,Weather View 32 v70,2013-05-01 11:11:00,
2013-05-01 04:16:00,18.7,4.8,30.44,ESE,108,0.0,0.0,54,0.00,,,0.00,Weather View 32 v70,2013-05-01 11:16:00,
2013-05-01 04:21:00,18.7,4.8,30.47,ESE,107,0.0,0.0,54,0.00,,,0.00,Weather View 32 v70,2013-05-01 11:21:00,
2013-05-01 04:26:00,18.5,5.0,30.47,ESE,108,0.0,0.0,55,0.00,,,0.00,Weather View 32 v70,2013-05-01 11:26:00,
2013-05-01 04:31:00,18.5,4.6,30.47,ESE,108,0.0,0.0,54,0.00,,,0.00,Weather View 32 v70,2013-05-01 11:31:00,
2013-05-01 04:36:00,18.3,4.5,30.47,ESE,108,0.0,0.0,54,0.00,,,0.00,Weather View 32 v70,2013-05-01 11:36:00,
2013-05-01 04:41:00,18.1,4.3,30.47,ESE,108,0.0,0.0,54,0.00,,,0.00,Weather View 32 v70,2013-05-01 11:41:00,
2013-05-01 04:46:00,17.8,4.0,30.47,ESE,107,0.0,0.0,54,0.00,,,0.00,Weather View 32 v70,2013-05-01 11:46:00,
2013-05-01 04:51:00,17.8,4.3,30.47,ESE,108,0.0,0.0,55,0.00,,,0.00,Weather View 32 v70,2013-05-01 11:51:00,
2013-05-01 04:56:00,17.8,4.3,30.47,ESE,107,0.0,0.0,55,0.00,,,0.00,Weather View 32 v70,2013-05-01 11:56:00,
2013-05-01 05:01:00,17.6,4.2,30.47,ESE,108,0.0,0.0,55,0.00,,,0.00,Weather View 32 v70,2013-05-01 12:01:00,
2013-05-01 05:06:00,17.6,4.2,30.47,ESE,108,0.0,0.0,55,0.00,,,0.00,Weather View 32 v70,2013-05-01 12:06:00,
2013-05-01 05:11:00,17.4,4.4,30.47,ESE,107,0.0,0.0,56,0.00,,,0.00,Weather View 32 v70,2013-05-01 12:11:00,
2013-05-01 05:16:00,17.4,4.0,30.47,ESE,107,0.0,0.0,55,0.00,,,0.00,Weather View 32 v70,2013-05-01 12:16:00,
2013-05-01 05:21:00,17.2,3.8,30.47,ESE,108,0.0,0.0,55,0.00,,,0.00,Weather View 32 v70,2013-05-01 12:21:00,
2013-05-01 05:26:00,17.1,3.7,30.47,ESE,108,0.0,0.0,55,0.00,,,0.00,Weather View 32 v70,2013-05-01 12:26:00,
2013-05-01 05:31:00,16.9,3.5,30.47,ESE,107,0.0,0.0,55,0.00,,,0.00,Weather View 32 v70,2013-05-01 12:31:00,
2013-05-01 05:36:00,16.9,3.9,30.47,ESE,107,0.0,0.0,56,0.00,,,0.00,Weather View 32 v70,2013-05-01 12:36:00,
2013-05-01 05:41:00,16.9,3.9,30.47,ESE,108,0.0,0.0,56,0.00,,,0.00,Weather View 32 v70,2013-05-01 12:41:00,
2013-05-01 05:47:00,16.7,4.1,30.47,ESE,108,0.0,0.0,57,0.00,,,0.00,Weather View 32 v70,2013-05-01 12:47:00,
2013-05-01 05:52:00,16.5,3.9,30.47,ESE,107,0.0,0.0,57,0.00,,,0.00,Weather View 32 v70,2013-05-01 12:52:00,
2013-05-01 05:57:00,16.5,4.3,30.47,SE,132,3.0,3.0,58,0.00,,,0.00,Weather View 32 v70,2013-05-01 12:57:00,
2013-05-01 06:02:00,16.7,4.5,30.47,SE,134,0.0,4.0,58,0.00,,,0.00,Weather View 32 v70,2013-05-01 13:02:00,
2013-05-01 06:07:00,16.9,4.7,30.47,SE,134,0.0,4.0,58,0.00,,,0.00,Weather View 32 v70,2013-05-01 13:07:00,
2013-05-01 06:12:00,17.1,4.8,30.47,SE,133,0.0,4.0,58,0.00,,,0.00,Weather View 32 v70,2013-05-01 13:12:00,
2013-05-01 06:17:00,17.6,5.7,30.47,SE,134,0.0,4.0,59,0.00,,,0.00,Weather View 32 v70,2013-05-01 13:17:00,
2013-05-01 06:22:00,18.1,6.2,30.47,SE,134,0.0,4.0,59,0.00,,,0.00,Weather View 32 v70,2013-05-01 13:22:00,
2013-05-01 06:27:00,18.3,6.4,30.47,SE,134,0.0,4.0,59,0.00,,,0.00,Weather View 32 v70,2013-05-01 13:27:00,
2013-05-01 06:33:00,19.8,9.2,30.47,SE,134,0.0,4.0,63,0.00,,,0.00,Weather View 32 v70,2013-05-01 13:33:00,
2013-05-01 06:38:00,20.7,9.3,30.50,SE,134,0.0,4.0,61,0.00,,,0.00,Weather View 32 v70,2013-05-01 13:38:00,
2013-05-01 06:43:00,21.0,8.9,30.50,SE,134,0.0,4.0,59,0.00,,,0.00,Weather View 32 v70,2013-05-01 13:43:00,
2013-05-01 06:48:00,21.6,9.1,30.50,SE,134,0.0,4.0,58,0.00,,,0.00,Weather View 32 v70,2013-05-01 13:48:00,
2013-05-01 06:53:00,21.9,9.0,30.50,SE,134,0.0,4.0,57,0.00,,,0.00,Weather View 32 v70,2013-05-01 13:53:00,
2013-05-01 06:58:00,22.5,9.1,30.50,SE,134,0.0,4.0,56,0.00,,,0.00,Weather View 32 v70,2013-05-01 13:58:00,
2013-05-01 07:03:00,23.2,10.2,30.50,SE,134,0.0,4.0,57,0.00,,,0.00,Weather View 32 v70,2013-05-01 14:03:00,
2013-05-01 07:08:00,24.1,11.8,30.50,SE,134,3.0,4.0,59,0.00,,,0.00,Weather View 32 v70,2013-05-01 14:08:00,
2013-05-01 07:13:00,25.3,12.2,30.50,SE,134,2.0,4.0,57,0.00,,,0.00,Weather View 32 v70,2013-05-01 14:13:00,
2013-05-01 07:18:00,26.2,12.7,30.50,SE,134,0.0,4.0,56,0.00,,,0.00,Weather View 32 v70,2013-05-01 14:18:00,
2013-05-01 07:23:00,27.0,12.9,30.50,SE,134,0.0,4.0,55,0.00,,,0.00,Weather View 32 v70,2013-05-01 14:23:00,
2013-05-01 07:28:00,27.9,13.8,30.50,SE,134,0.0,4.0,55,0.00,,,0.00,Weather View 32 v70,2013-05-01 14:28:00,
2013-05-01 07:33:00,28.6,14.0,30.50,SE,134,0.0,4.0,54,0.00,,,0.00,Weather View 32 v70,2013-05-01 14:33:00,
2013-05-01 07:38:00,29.5,14.4,30.50,SE,134,4.0,4.0,53,0.00,,,0.00,Weather View 32 v70,2013-05-01 14:38:00,
2013-05-01 07:43:00,30.9,14.9,30.50,SSE,160,3.0,5.0,51,0.00,,,0.00,Weather View 32 v70,2013-05-01 14:43:00,
2013-05-01 07:48:00,32.2,15.2,30.50,SSE,160,4.0,5.0,49,0.00,,,0.00,Weather View 32 v70,2013-05-01 14:48:00,
2013-05-01 07:53:00,33.1,15.5,30.50,SSE,160,3.0,5.0,48,0.00,,,0.00,Weather View 32 v70,2013-05-01 14:53:00,
2013-05-01 07:58:00,34.0,15.4,30.50,SSE,160,4.0,5.0,46,0.00,,,0.00,Weather View 32 v70,2013-05-01 14:58:00,
2013-05-01 08:04:00,34.3,15.2,30.50,SSE,160,3.0,6.0,45,0.00,,,0.00,Weather View 32 v70,2013-05-01 15:04:00,
2013-05-01 08:09:00,35.1,15.8,30.50,SSE,160,2.0,6.0,45,0.00,,,0.00,Weather View 32 v70,2013-05-01 15:09:00,
2013-05-01 08:14:00,35.6,15.8,30.50,SSE,160,3.0,6.0,44,0.00,,,0.00,Weather View 32 v70,2013-05-01 15:14:00,
2013-05-01 08:19:00,36.1,16.3,30.50,SSE,160,3.0,6.0,44,0.00,,,0.00,Weather View 32 v70,2013-05-01 15:19:00,
2013-05-01 08:24:00,36.7,16.3,30.50,SSE,160,5.0,6.0,43,0.00,,,0.00,Weather View 32 v70,2013-05-01 15:24:00,
2013-05-01 08:29:00,37.4,16.4,30.50,SSE,160,5.0,6.0,42,0.00,,,0.00,Weather View 32 v70,2013-05-01 15:29:00,
2013-05-01 08:34:00,37.9,16.9,30.50,SSE,160,5.0,6.0,42,0.00,,,0.00,Weather View 32 v70,2013-05-01 15:34:00,
2013-05-01 08:39:00,38.3,17.2,30.50,SSE,160,3.0,6.0,42,0.00,,,0.00,Weather View 32 v70,2013-05-01 15:39:00,
2013-05-01 08:44:00,39.0,17.3,30.50,SSE,160,4.0,6.0,41,0.00,,,0.00,Weather View 32 v70,2013-05-01 15:44:00,
2013-05-01 08:49:00,40.5,18.6,30.50,SSE,160,8.0,8.0,41,0.00,,,0.00,Weather View 32 v70,2013-05-01 15:49:00,
2013-05-01 08:54:00,42.6,20.0,30.50,SSE,160,8.0,8.0,40,0.00,,,0.00,Weather View 32 v70,2013-05-01 15:54:00,
2013-05-01 08:59:00,44.2,20.8,30.50,SSE,160,4.0,9.0,39,0.00,,,0.00,Weather View 32 v70,2013-05-01 15:59:00,
2013-05-01 09:04:00,43.3,20.0,30.50,SSE,160,4.0,9.0,39,0.00,,,0.00,Weather View 32 v70,2013-05-01 16:04:00,
2013-05-01 09:09:00,42.6,19.4,30.50,SSE,160,10.0,10.0,39,0.00,,,0.00,Weather View 32 v70,2013-05-01 16:09:00,
2013-05-01 09:14:00,42.4,19.2,30.50,SSE,160,0.0,10.0,39,0.00,,,0.00,Weather View 32 v70,2013-05-01 16:14:00,
2013-05-01 09:19:00,43.2,19.8,30.50,SE,134,5.0,10.0,39,0.00,,,0.00,Weather View 32 v70,2013-05-01 16:19:00,
2013-05-01 09:24:00,44.1,20.7,30.50,SSE,160,4.0,10.0,39,0.00,,,0.00,Weather View 32 v70,2013-05-01 16:24:00,
2013-05-01 09:29:00,45.0,20.8,30.50,SSE,160,6.0,10.0,38,0.00,,,0.00,Weather View 32 v70,2013-05-01 16:29:00,
2013-05-01 09:34:00,45.5,21.3,30.50,SSE,160,4.0,10.0,38,0.00,,,0.00,Weather View 32 v70,2013-05-01 16:34:00,
2013-05-01 09:39:00,46.0,21.8,30.50,SSE,159,3.0,10.0,38,0.00,,,0.00,Weather View 32 v70,2013-05-01 16:39:00,
2013-05-01 09:44:00,46.0,21.8,30.50,SSE,160,6.0,11.0,38,0.00,,,0.00,Weather View 32 v70,2013-05-01 16:44:00,
2013-05-01 09:49:00,47.7,23.3,30.50,SSE,160,5.0,11.0,38,0.00,,,0.00,Weather View 32 v70,2013-05-01 16:49:00,
2013-05-01 09:54:00,48.0,23.6,30.50,SSE,160,4.0,11.0,38,0.00,,,0.00,Weather View 32 v70,2013-05-01 16:54:00,
2013-05-01 09:59:00,48.2,23.1,30.50,SSE,160,0.0,11.0,37,0.00,,,0.00,Weather View 32 v70,2013-05-01 16:59:00,
2013-05-01 10:04:00,49.6,24.4,30.53,SSE,160,6.0,11.0,37,0.00,,,0.00,Weather View 32 v70,2013-05-01 17:04:00,
2013-05-01 10:09:00,50.2,24.9,30.53,SSE,153,3.0,11.0,37,0.00,,,0.00,Weather View 32 v70,2013-05-01 17:09:00,
2013-05-01 10:14:00,49.8,24.5,30.53,SSE,160,6.0,11.0,37,0.00,,,0.00,Weather View 32 v70,2013-05-01 17:14:00,
2013-05-01 10:19:00,49.8,24.5,30.53,SSE,160,6.0,11.0,37,0.00,,,0.00,Weather View 32 v70,2013-05-01 17:19:00,
2013-05-01 10:24:00,50.4,25.0,30.53,SSE,160,4.0,11.0,37,0.00,,,0.00,Weather View 32 v70,2013-05-01 17:24:00,
2013-05-01 10:29:00,51.4,26.0,30.53,SSE,160,8.0,11.0,37,0.00,,,0.00,Weather View 32 v70,2013-05-01 17:29:00,
2013-05-01 10:34:00,52.0,25.8,30.53,SSE,160,9.0,11.0,36,0.00,,,0.00,Weather View 32 v70,2013-05-01 17:34:00,
2013-05-01 10:39:00,53.1,26.8,30.53,SSE,160,3.0,11.0,36,0.00,,,0.00,Weather View 32 v70,2013-05-01 17:39:00,
2013-05-01 10:44:00,52.5,26.3,30.53,SSE,160,4.0,10.0,36,0.00,,,0.00,Weather View 32 v70,2013-05-01 17:44:00,
2013-05-01 10:49:00,52.3,26.1,30.50,SSE,160,8.0,11.0,36,0.00,,,0.00,Weather View 32 v70,2013-05-01 17:49:00,
2013-05-01 10:54:00,51.4,26.0,30.50,SSE,160,4.0,11.0,37,0.00,,,0.00,Weather View 32 v70,2013-05-01 17:54:00,
2013-05-01 10:59:00,52.0,25.8,30.50,SSE,160,3.0,11.0,36,0.00,,,0.00,Weather View 32 v70,2013-05-01 17:59:00,
2013-05-01 11:04:00,51.8,25.6,30.50,SE,126,6.0,15.0,36,0.00,,,0.00,Weather View 32 v70,2013-05-01 18:04:00,
2013-05-01 11:09:00,51.6,26.1,30.50,SSE,160,9.0,15.0,37,0.00,,,0.00,Weather View 32 v70,2013-05-01 18:09:00,
2013-05-01 11:15:00,51.6,26.1,30.50,SSE,160,2.0,15.0,37,0.00,,,0.00,Weather View 32 v70,2013-05-01 18:15:00,
2013-05-01 11:20:00,52.2,26.0,30.50,SSE,160,8.0,15.0,36,0.00,,,0.00,Weather View 32 v70,2013-05-01 18:20:00,
2013-05-01 11:25:00,53.1,26.8,30.50,SSE,160,6.0,15.0,36,0.00,,,0.00,Weather View 32 v70,2013-05-01 18:25:00,
2013-05-01 11:30:00,53.1,26.8,30.50,SSE,157,6.0,15.0,36,0.00,,,0.00,Weather View 32 v70,2013-05-01 18:30:00,
2013-05-01 11:35:00,52.7,26.4,30.50,SSE,152,2.0,15.0,36,0.00,,,0.00,Weather View 32 v70,2013-05-01 18:35:00,
2013-05-01 11:40:00,53.6,27.2,30.50,SSE,160,5.0,15.0,36,0.00,,,0.00,Weather View 32 v70,2013-05-01 18:40:00,
2013-05-01 11:45:00,55.0,28.5,30.50,SSE,160,5.0,15.0,36,0.00,,,0.00,Weather View 32 v70,2013-05-01 18:45:00,
2013-05-01 11:50:00,55.6,28.3,30.50,SSE,160,11.0,15.0,35,0.00,,,0.00,Weather View 32 v70,2013-05-01 18:50:00,
2013-05-01 11:55:00,54.7,28.2,30.50,SSE,160,5.0,15.0,36,0.00,,,0.00,Weather View 32 v70,2013-05-01 18:55:00,
2013-05-01 12:00:00,53.8,27.4,30.50,SSE,160,5.0,15.0,36,0.00,,,0.00,Weather View 32 v70,2013-05-01 19:00:00,
2013-05-01 12:05:00,54.5,28.0,30.50,SSE,160,4.0,14.0,36,0.00,,,0.00,Weather View 32 v70,2013-05-01 19:05:00,
2013-05-01 12:10:00,54.7,28.2,30.50,WSW,247,5.0,14.0,36,0.00,,,0.00,Weather View 32 v70,2013-05-01 19:10:00,
2013-05-01 12:15:00,54.9,28.4,30.50,SW,223,3.0,14.0,36,0.00,,,0.00,Weather View 32 v70,2013-05-01 19:15:00,
2013-05-01 12:20:00,54.7,28.2,30.50,SW,223,4.0,14.0,36,0.00,,,0.00,Weather View 32 v70,2013-05-01 19:20:00,
2013-05-01 12:25:00,55.8,28.5,30.50,SW,223,6.0,14.0,35,0.00,,,0.00,Weather View 32 v70,2013-05-01 19:25:00,
2013-05-01 12:30:00,55.9,28.6,30.50,SW,223,4.0,14.0,35,0.00,,,0.00,Weather View 32 v70,2013-05-01 19:30:00,
2013-05-01 12:35:00,56.1,28.8,30.50,WSW,246,7.0,14.0,35,0.00,,,0.00,Weather View 32 v70,2013-05-01 19:35:00,
2013-05-01 12:40:00,56.3,28.9,30.50,SW,223,8.0,14.0,35,0.00,,,0.00,Weather View 32 v70,2013-05-01 19:40:00,
2013-05-01 12:45:00,56.8,29.4,30.50,SW,223,6.0,14.0,35,0.00,,,0.00,Weather View 32 v70,2013-05-01 19:45:00,
2013-05-01 12:50:00,56.8,29.4,30.50,SW,234,4.0,14.0,35,0.00,,,0.00,Weather View 32 v70,2013-05-01 19:50:00,
2013-05-01 12:55:00,57.0,29.6,30.50,SW,223,4.0,11.0,35,0.00,,,0.00,Weather View 32 v70,2013-05-01 19:55:00,
2013-05-01 13:00:00,56.8,29.4,30.50,SW,222,6.0,14.0,35,0.00,,,0.00,Weather View 32 v70,2013-05-01 20:00:00,
2013-05-01 13:05:00,57.4,29.9,30.50,West,259,4.0,14.0,35,0.00,,,0.00,Weather View 32 v70,2013-05-01 20:05:00,
2013-05-01 13:10:00,57.6,30.1,30.50,SW,223,5.0,14.0,35,0.00,,,0.00,Weather View 32 v70,2013-05-01 20:10:00,
2013-05-01 13:15:00,57.9,30.4,30.50,SW,223,5.0,14.0,35,0.00,,,0.00,Weather View 32 v70,2013-05-01 20:15:00,
2013-05-01 13:20:00,57.7,30.2,30.50,WSW,251,4.0,14.0,35,0.00,,,0.00,Weather View 32 v70,2013-05-01 20:20:00,
2013-05-01 13:25:00,58.5,30.9,30.50,SW,223,4.0,14.0,35,0.00,,,0.00,Weather View 32 v70,2013-05-01 20:25:00,
2013-05-01 13:30:00,58.6,31.0,30.50,WSW,245,9.0,14.0,35,0.00,,,0.00,Weather View 32 v70,2013-05-01 20:30:00,
2013-05-01 13:35:00,58.8,31.2,30.50,SW,223,5.0,14.0,35,0.00,,,0.00,Weather View 32 v70,2013-05-01 20:35:00,
2013-05-01 13:40:00,59.0,30.6,30.50,SW,222,9.0,14.0,34,0.00,,,0.00,Weather View 32 v70,2013-05-01 20:40:00,
2013-05-01 13:46:00,59.0,30.6,30.50,SW,222,8.0,14.0,34,0.00,,,0.00,Weather View 32 v70,2013-05-01 20:46:00,
2013-05-01 13:51:00,59.5,31.1,30.50,West,275,4.0,14.0,34,0.00,,,0.00,Weather View 32 v70,2013-05-01 20:51:00,
2013-05-01 13:56:00,59.9,31.4,30.50,SW,223,6.0,14.0,34,0.00,,,0.00,Weather View 32 v70,2013-05-01 20:56:00,
2013-05-01 14:01:00,59.7,31.2,30.50,SW,223,6.0,13.0,34,0.00,,,0.00,Weather View 32 v70,2013-05-01 21:01:00,
2013-05-01 14:06:00,59.7,31.2,30.50,SW,223,8.0,11.0,34,0.00,,,0.00,Weather View 32 v70,2013-05-01 21:06:00,
2013-05-01 14:11:00,59.5,31.1,30.50,SW,223,6.0,11.0,34,0.00,,,0.00,Weather View 32 v70,2013-05-01 21:11:00,
2013-05-01 14:16:00,59.9,31.4,30.50,SW,223,3.0,11.0,34,0.00,,,0.00,Weather View 32 v70,2013-05-01 21:16:00,
2013-05-01 14:21:00,59.5,31.1,30.50,SW,223,3.0,11.0,34,0.00,,,0.00,Weather View 32 v70,2013-05-01 21:21:00,
2013-05-01 14:26:00,59.7,31.2,30.50,SSE,160,3.0,11.0,34,0.00,,,0.00,Weather View 32 v70,2013-05-01 21:26:00,
2013-05-01 14:31:00,60.6,32.0,30.50,SSE,160,6.0,11.0,34,0.00,,,0.00,Weather View 32 v70,2013-05-01 21:31:00,
2013-05-01 14:36:00,60.6,32.0,30.50,SSE,160,4.0,11.0,34,0.00,,,0.00,Weather View 32 v70,2013-05-01 21:36:00,
2013-05-01 14:41:00,60.6,32.0,30.50,SSE,160,5.0,11.0,34,0.00,,,0.00,Weather View 32 v70,2013-05-01 21:41:00,
2013-05-01 14:46:00,61.0,32.4,30.50,SSE,161,11.0,11.0,34,0.00,,,0.00,Weather View 32 v70,2013-05-01 21:46:00,
2013-05-01 14:51:00,61.0,32.4,30.50,SSE,160,5.0,11.0,34,0.00,,,0.00,Weather View 32 v70,2013-05-01 21:51:00,
2013-05-01 14:56:00,60.8,32.2,30.50,ENE,70,5.0,11.0,34,0.00,,,0.00,Weather View 32 v70,2013-05-01 21:56:00,
2013-05-01 15:01:00,61.2,32.5,30.50,ENE,75,6.0,11.0,34,0.00,,,0.00,Weather View 32 v70,2013-05-01 22:01:00,
2013-05-01 15:06:00,61.9,33.1,30.50,East,79,5.0,11.0,34,0.00,,,0.00,Weather View 32 v70,2013-05-01 22:06:00,
2013-05-01 15:11:00,61.5,32.8,30.50,SSE,160,6.0,11.0,34,0.00,,,0.00,Weather View 32 v70,2013-05-01 22:11:00,
2013-05-01 15:16:00,62.4,33.6,30.50,West,259,0.0,11.0,34,0.00,,,0.00,Weather View 32 v70,2013-05-01 22:16:00,
2013-05-01 15:21:00,62.4,33.6,30.50,SW,224,0.0,11.0,34,0.00,,,0.00,Weather View 32 v70,2013-05-01 22:21:00,
2013-05-01 15:26:00,62.2,33.5,30.50,SW,223,3.0,11.0,34,0.00,,,0.00,Weather View 32 v70,2013-05-01 22:26:00,
2013-05-01 15:31:00,63.1,34.2,30.50,SW,223,4.0,11.0,34,0.00,,,0.00,Weather View 32 v70,2013-05-01 22:31:00,
2013-05-01 15:36:00,64.6,34.8,30.50,SW,223,4.0,11.0,33,0.00,,,0.00,Weather View 32 v70,2013-05-01 22:36:00,
2013-05-01 15:41:00,64.6,34.8,30.50,SW,223,5.0,11.0,33,0.00,,,0.00,Weather View 32 v70,2013-05-01 22:41:00,
2013-05-01 15:45:00,63.1,34.2,30.50,SW,223,5.0,11.0,34,0.00,,,0.00,Weather View 32 v70,2013-05-01 22:45:00,
2013-05-01 15:47:00,63.0,34.1,30.50,SW,223,6.0,11.0,34,0.00,,,0.00,Weather View 32 v70,2013-05-01 22:47:00,
2013-05-01 15:52:00,62.6,33.8,30.50,SW,222,5.0,11.0,34,0.00,,,0.00,Weather View 32 v70,2013-05-01 22:52:00,
2013-05-01 15:57:00,62.2,33.5,30.50,SW,222,6.0,11.0,34,0.00,,,0.00,Weather View 32 v70,2013-05-01 22:57:00,
2013-05-01 16:02:00,63.1,34.2,30.50,SW,222,9.0,11.0,34,0.00,,,0.00,Weather View 32 v70,2013-05-01 23:02:00,
2013-05-01 16:07:00,67.8,37.6,30.50,SW,222,9.0,11.0,33,0.00,,,0.00,Weather View 32 v70,2013-05-01 23:07:00,
2013-05-01 16:12:00,67.3,37.1,30.50,SW,222,5.0,11.0,33,0.00,,,0.00,Weather View 32 v70,2013-05-01 23:12:00,
2013-05-01 16:17:00,66.2,36.2,30.50,SW,223,6.0,11.0,33,0.00,,,0.00,Weather View 32 v70,2013-05-01 23:17:00,
2013-05-01 16:22:00,65.1,35.2,30.50,SW,223,4.0,11.0,33,0.00,,,0.00,Weather View 32 v70,2013-05-01 23:22:00,
2013-05-01 16:27:00,64.4,34.6,30.50,NNW,336,5.0,11.0,33,0.00,,,0.00,Weather View 32 v70,2013-05-01 23:27:00,
2013-05-01 16:32:00,63.7,34.7,30.50,SW,223,0.0,11.0,34,0.00,,,0.00,Weather View 32 v70,2013-05-01 23:32:00,
2013-05-01 16:37:00,63.9,34.9,30.50,SW,223,3.0,11.0,34,0.00,,,0.00,Weather View 32 v70,2013-05-01 23:37:00,
2013-05-01 16:42:00,63.9,34.9,30.50,SW,223,6.0,11.0,34,0.00,,,0.00,Weather View 32 v70,2013-05-01 23:42:00,
2013-05-01 16:45:00,64.9,35.1,30.50,SW,223,4.0,11.0,33,0.00,,,0.00,Weather View 32 v70,2013-05-01 23:45:00,
2013-05-01 16:47:00,66.6,36.5,30.50,SW,223,6.0,11.0,33,0.00,,,0.00,Weather View 32 v70,2013-05-01 23:47:00,
2013-05-01 16:52:00,65.8,35.9,30.50,SW,222,11.0,11.0,33,0.00,,,0.00,Weather View 32 v70,2013-05-01 23:52:00,
2013-05-01 16:57:00,65.1,35.2,30.50,SW,223,0.0,11.0,33,0.00,,,0.00,Weather View 32 v70,2013-05-01 23:57:00,
2013-05-01 17:02:00,64.8,34.9,30.50,SW,223,6.0,11.0,33,0.00,,,0.00,Weather View 32 v70,2013-05-02 00:02:00,
2013-05-01 17:07:00,64.2,35.2,30.50,SW,223,3.0,11.0,34,0.00,,,0.00,Weather View 32 v70,2013-05-02 00:07:00,
2013-05-01 17:12:00,64.6,34.8,30.50,SW,223,8.0,11.0,33,0.00,,,0.00,Weather View 32 v70,2013-05-02 00:12:00,
2013-05-01 17:17:00,68.0,37.0,30.50,SE,126,6.0,11.0,32,0.00,,,0.00,Weather View 32 v70,2013-05-02 00:17:00,
2013-05-01 17:22:00,70.3,39.0,30.50,NE,45,4.0,11.0,32,0.00,,,0.00,Weather View 32 v70,2013-05-02 00:22:00,
2013-05-01 17:27:00,70.9,39.5,30.50,ENE,61,6.0,11.0,32,0.00,,,0.00,Weather View 32 v70,2013-05-02 00:27:00,
2013-05-01 17:32:00,69.1,37.9,30.50,ENE,59,8.0,11.0,32,0.00,,,0.00,Weather View 32 v70,2013-05-02 00:32:00,
2013-05-01 17:37:00,67.8,37.6,30.50,ESE,105,0.0,11.0,33,0.00,,,0.00,Weather View 32 v70,2013-05-02 00:37:00,
2013-05-01 17:42:00,67.3,37.1,30.50,ESE,103,5.0,11.0,33,0.00,,,0.00,Weather View 32 v70,2013-05-02 00:42:00,
2013-05-01 17:45:00,67.1,37.0,30.50,ESE,120,4.0,11.0,33,0.00,,,0.00,Weather View 32 v70,2013-05-02 00:45:00,
2013-05-01 17:47:00,67.1,37.0,30.50,East,100,6.0,11.0,33,0.00,,,0.00,Weather View 32 v70,2013-05-02 00:47:00,
2013-05-01 17:52:00,65.7,35.7,30.50,NE,47,5.0,13.0,33,0.00,,,0.00,Weather View 32 v70,2013-05-02 00:52:00,
2013-05-01 17:57:00,65.7,35.7,30.50,East,84,4.0,13.0,33,0.00,,,0.00,Weather View 32 v70,2013-05-02 00:57:00,
2013-05-01 18:02:00,66.2,36.2,30.50,East,80,8.0,13.0,33,0.00,,,0.00,Weather View 32 v70,2013-05-02 01:02:00,
2013-05-01 18:07:00,67.1,37.0,30.50,ENE,68,4.0,13.0,33,0.00,,,0.00,Weather View 32 v70,2013-05-02 01:07:00,
2013-05-01 18:12:00,68.2,37.9,30.50,ESE,115,8.0,13.0,33,0.00,,,0.00,Weather View 32 v70,2013-05-02 01:12:00,
2013-05-01 18:18:00,67.6,37.4,30.50,East,79,6.0,13.0,33,0.00,,,0.00,Weather View 32 v70,2013-05-02 01:18:00,
2013-05-01 18:23:00,66.9,36.8,30.50,East,97,5.0,13.0,33,0.00,,,0.00,Weather View 32 v70,2013-05-02 01:23:00,
2013-05-01 18:28:00,65.8,35.9,30.50,ESE,104,4.0,13.0,33,0.00,,,0.00,Weather View 32 v70,2013-05-02 01:28:00,
2013-05-01 18:33:00,62.4,33.6,30.50,ENE,74,8.0,13.0,34,0.00,,,0.00,Weather View 32 v70,2013-05-02 01:33:00,
2013-05-01 18:38:00,60.8,32.2,30.50,ENE,78,6.0,13.0,34,0.00,,,0.00,Weather View 32 v70,2013-05-02 01:38:00,
2013-05-01 18:43:00,60.1,31.6,30.50,East,79,6.0,13.0,34,0.00,,,0.00,Weather View 32 v70,2013-05-02 01:43:00,
2013-05-01 18:45:00,59.5,31.1,30.50,ESE,103,5.0,13.0,34,0.00,,,0.00,Weather View 32 v70,2013-05-02 01:45:00,
2013-05-01 18:48:00,59.2,30.8,30.50,NE,56,8.0,13.0,34,0.00,,,0.00,Weather View 32 v70,2013-05-02 01:48:00,
2013-05-01 18:53:00,59.0,30.6,30.50,ESE,118,11.0,12.0,34,0.00,,,0.00,Weather View 32 v70,2013-05-02 01:53:00,
2013-05-01 18:58:00,58.8,31.2,30.50,ENE,78,4.0,12.0,35,0.00,,,0.00,Weather View 32 v70,2013-05-02 01:58:00,
2013-05-01 19:03:00,58.5,30.9,30.50,ENE,65,6.0,12.0,35,0.00,,,0.00,Weather View 32 v70,2013-05-02 02:03:00,
2013-05-01 19:08:00,58.1,30.5,30.50,East,99,5.0,12.0,35,0.00,,,0.00,Weather View 32 v70,2013-05-02 02:08:00,
2013-05-01 19:13:00,57.9,30.4,30.50,ESE,104,8.0,12.0,35,0.00,,,0.00,Weather View 32 v70,2013-05-02 02:13:00,
2013-05-01 19:18:00,57.6,30.1,30.50,East,85,6.0,12.0,35,0.00,,,0.00,Weather View 32 v70,2013-05-02 02:18:00,
2013-05-01 19:23:00,57.4,29.9,30.50,East,81,5.0,12.0,35,0.00,,,0.00,Weather View 32 v70,2013-05-02 02:23:00,
2013-05-01 19:28:00,57.2,29.7,30.50,ENE,76,4.0,12.0,35,0.00,,,0.00,Weather View 32 v70,2013-05-02 02:28:00,
2013-05-01 19:33:00,56.8,29.4,30.50,East,80,6.0,11.0,35,0.00,,,0.00,Weather View 32 v70,2013-05-02 02:33:00,
2013-05-01 19:38:00,56.7,29.3,30.50,ESE,109,6.0,11.0,35,0.00,,,0.00,Weather View 32 v70,2013-05-02 02:38:00,
2013-05-01 19:43:00,56.5,29.1,30.50,ESE,118,8.0,11.0,35,0.00,,,0.00,Weather View 32 v70,2013-05-02 02:43:00,
2013-05-01 19:45:00,56.3,28.9,30.50,ENE,61,7.0,11.0,35,0.00,,,0.00,Weather View 32 v70,2013-05-02 02:45:00,
2013-05-01 19:48:00,55.9,28.6,30.50,ESE,102,4.0,11.0,35,0.00,,,0.00,Weather View 32 v70,2013-05-02 02:48:00,
2013-05-01 19:53:00,55.8,28.5,30.50,ENE,77,6.0,11.0,35,0.00,,,0.00,Weather View 32 v70,2013-05-02 02:53:00,
2013-05-01 19:58:00,55.2,28.7,30.50,East,94,6.0,11.0,36,0.00,,,0.00,Weather View 32 v70,2013-05-02 02:58:00,
2013-05-01 20:03:00,54.9,28.4,30.50,ENE,63,5.0,10.0,36,0.00,,,0.00,Weather View 32 v70,2013-05-02 03:03:00,
2013-05-01 20:08:00,54.5,28.0,30.50,ENE,74,3.0,10.0,36,0.00,,,0.00,Weather View 32 v70,2013-05-02 03:08:00,
2013-05-01 20:13:00,54.0,27.6,30.50,East,85,3.0,10.0,36,0.00,,,0.00,Weather View 32 v70,2013-05-02 03:13:00,
2013-05-01 20:19:00,53.4,27.1,30.50,ENE,76,4.0,9.0,36,0.00,,,0.00,Weather View 32 v70,2013-05-02 03:19:00,
2013-05-01 20:24:00,53.1,26.8,30.50,East,87,4.0,9.0,36,0.00,,,0.00,Weather View 32 v70,2013-05-02 03:24:00,
2013-05-01 20:29:00,52.9,26.6,30.50,East,81,4.0,9.0,36,0.00,,,0.00,Weather View 32 v70,2013-05-02 03:29:00,
2013-05-01 20:34:00,52.3,26.1,30.50,East,81,0.0,9.0,36,0.00,,,0.00,Weather View 32 v70,2013-05-02 03:34:00,
2013-05-01 20:39:00,51.8,25.6,30.50,East,81,0.0,8.0,36,0.00,,,0.00,Weather View 32 v70,2013-05-02 03:39:00,
2013-05-01 20:44:00,51.3,25.2,30.50,East,81,0.0,8.0,36,0.00,,,0.00,Weather View 32 v70,2013-05-02 03:44:00,
2013-05-01 20:45:00,50.9,24.8,30.50,East,81,0.0,7.0,36,0.00,,,0.00,Weather View 32 v70,2013-05-02 03:45:00,
2013-05-01 20:49:00,50.2,24.2,30.53,East,81,0.0,6.0,36,0.00,,,0.00,Weather View 32 v70,2013-05-02 03:49:00,
2013-05-01 20:54:00,49.5,24.2,30.53,East,81,0.0,6.0,37,0.00,,,0.00,Weather View 32 v70,2013-05-02 03:54:00,
2013-05-01 20:59:00,48.6,23.4,30.53,East,81,0.0,6.0,37,0.00,,,0.00,Weather View 32 v70,2013-05-02 03:59:00,
2013-05-01 21:01:00,48.2,23.1,30.53,East,81,0.0,6.0,37,0.00,,,0.00,Weather View 32 v70,2013-05-02 04:01:00,
2013-05-01 21:06:00,47.3,22.3,30.53,East,81,0.0,6.0,37,0.00,,,0.00,Weather View 32 v70,2013-05-02 04:06:00,
2013-05-01 21:11:00,46.6,21.7,30.53,East,81,0.0,6.0,37,0.00,,,0.00,Weather View 32 v70,2013-05-02 04:11:00,
2013-05-01 21:16:00,46.0,21.8,30.53,East,81,0.0,6.0,38,0.00,,,0.00,Weather View 32 v70,2013-05-02 04:16:00,
2013-05-01 21:21:00,45.3,21.2,30.53,East,81,0.0,5.0,38,0.00,,,0.00,Weather View 32 v70,2013-05-02 04:21:00,
2013-05-01 21:26:00,44.8,20.7,30.53,East,81,0.0,5.0,38,0.00,,,0.00,Weather View 32 v70,2013-05-02 04:26:00,
2013-05-01 21:30:00,44.2,20.2,30.53,East,81,0.0,4.0,38,0.00,,,0.00,Weather View 32 v70,2013-05-02 04:30:00,
2013-05-01 21:35:00,43.9,19.9,30.53,East,81,0.0,0.0,38,0.00,,,0.00,Weather View 32 v70,2013-05-02 04:35:00,
2013-05-01 21:40:00,43.3,19.4,30.53,East,81,0.0,0.0,38,0.00,,,0.00,Weather View 32 v70,2013-05-02 04:40:00,
2013-05-01 21:45:00,43.0,19.1,30.53,East,81,0.0,0.0,38,0.00,,,0.00,Weather View 32 v70,2013-05-02 04:45:00,
2013-05-01 21:49:00,42.4,19.2,30.53,East,81,0.0,0.0,39,0.00,,,0.00,Weather View 32 v70,2013-05-02 04:49:00,
2013-05-01 21:54:00,42.3,19.0,30.53,East,81,0.0,0.0,39,0.00,,,0.00,Weather View 32 v70,2013-05-02 04:54:00,
2013-05-01 21:59:00,41.9,18.7,30.53,East,81,0.0,0.0,39,0.00,,,0.00,Weather View 32 v70,2013-05-02 04:59:00,
2013-05-01 22:04:00,41.5,18.4,30.53,East,81,0.0,0.0,39,0.00,,,0.00,Weather View 32 v70,2013-05-02 05:04:00,
2013-05-01 22:09:00,41.2,18.1,30.53,East,81,0.0,0.0,39,0.00,,,0.00,Weather View 32 v70,2013-05-02 05:09:00,
2013-05-01 22:14:00,41.0,17.9,30.53,East,81,0.0,0.0,39,0.00,,,0.00,Weather View 32 v70,2013-05-02 05:14:00,
2013-05-01 22:19:00,40.6,17.6,30.56,East,81,0.0,0.0,39,0.00,,,0.00,Weather View 32 v70,2013-05-02 05:19:00,
2013-05-01 22:24:00,40.5,17.4,30.56,East,81,0.0,0.0,39,0.00,,,0.00,Weather View 32 v70,2013-05-02 05:24:00,
2013-05-01 22:30:00,40.1,17.1,30.56,East,81,0.0,0.0,39,0.00,,,0.00,Weather View 32 v70,2013-05-02 05:30:00,
2013-05-01 22:35:00,39.9,16.9,30.56,East,81,0.0,0.0,39,0.00,,,0.00,Weather View 32 v70,2013-05-02 05:35:00,
2013-05-01 22:40:00,39.9,16.9,30.56,East,81,0.0,0.0,39,0.00,,,0.00,Weather View 32 v70,2013-05-02 05:40:00,
2013-05-01 22:45:00,39.7,16.8,30.56,East,81,0.0,0.0,39,0.00,,,0.00,Weather View 32 v70,2013-05-02 05:45:00,
2013-05-01 22:50:00,39.4,16.5,30.56,East,81,0.0,0.0,39,0.00,,,0.00,Weather View 32 v70,2013-05-02 05:50:00,
2013-05-01 22:55:00,39.4,16.5,30.56,East,81,0.0,0.0,39,0.00,,,0.00,Weather View 32 v70,2013-05-02 05:55:00,
2013-05-01 23:00:00,39.2,16.3,30.56,East,81,0.0,0.0,39,0.00,,,0.00,Weather View 32 v70,2013-05-02 06:00:00,
2013-05-01 23:05:00,39.0,16.1,30.56,East,81,0.0,0.0,39,0.00,,,0.00,Weather View 32 v70,2013-05-02 06:05:00,
2013-05-01 23:10:00,38.8,16.0,30.56,East,81,0.0,0.0,39,0.00,,,0.00,Weather View 32 v70,2013-05-02 06:10:00,
2013-05-01 23:15:00,38.7,15.8,30.56,East,81,0.0,0.0,39,0.00,,,0.00,Weather View 32 v70,2013-05-02 06:15:00,
2013-05-01 23:20:00,38.7,15.8,30.56,East,81,0.0,0.0,39,0.00,,,0.00,Weather View 32 v70,2013-05-02 06:20:00,
2013-05-01 23:25:00,38.5,15.6,30.56,East,81,0.0,0.0,39,0.00,,,0.00,Weather View 32 v70,2013-05-02 06:25:00,
2013-05-01 23:30:00,38.5,15.6,30.56,East,81,0.0,0.0,39,0.00,,,0.00,Weather View 32 v70,2013-05-02 06:30:00,
2013-05-01 23:35:00,38.5,16.2,30.56,East,81,0.0,0.0,40,0.00,,,0.00,Weather View 32 v70,2013-05-02 06:35:00,
2013-05-01 23:40:00,38.5,16.2,30.56,East,81,0.0,0.0,40,0.00,,,0.00,Weather View 32 v70,2013-05-02 06:40:00,
2013-05-01 23:45:00,38.5,16.2,30.56,East,81,0.0,0.0,40,0.00,,,0.00,Weather View 32 v70,2013-05-02 06:45:00,
2013-05-01 23:50:00,38.3,16.1,30.56,East,81,0.0,0.0,40,0.00,,,0.00,Weather View 32 v70,2013-05-02 06:50:00,
2013-05-01 23:55:00,38.1,15.9,30.56,East,81,0.0,0.0,40,0.00,,,0.00,Weather View 32 v70,2013-05-02 06:55:00,